sat.trackr.live / text

‹ back to catalog

GHGSAT-C1

NORAD 46278 · 2020-061G

PAYLOAD ACTIVE UNKNOWN

§ Identity

Operator
Country
CA
Launch date
2020-09-03
Launch site
FRGUI
Launch vehicle
Mass (kg)
RCS (m²)

External: N2YO · Heavens-Above · Gunter

§ Orbital elements

Epoch: 2026-09-19T12:36:32.228928Z

Period
90.92 min
Inclination
97.2017°
Eccentricity
0.0002215
Mean motion
15.83835058 rev/d
Perigee alt
318.1 km
Apogee alt
321.1 km
Semi-major
6,697.7 km
B*
6.0313e-4
RAAN
351.3435°
Arg perigee
240.1964°
Mean anomaly
119.9086°
Rev number
33,833

§ Raw data

GHGSAT-C11 46278U 20061G   26262.52537302  .00134799  00000+0  60313-3 0  99992 46278  97.2017 351.3435 0002215 240.1964 119.9086 15.83835058338335

JSON: /api/v1/satellites/46278 · /tle

For live sub-satellite position, see the globe view (requires WebGL).

§ Visibility from observer

Set your observer location to see the next 7 days of passes ≥ 10°. The values pass through the URL so the page stays shareable.

No JS? Fill the form by hand. The geolocation button needs JavaScript.